This demonstration page uses our WeatherBlox Daily Observations layout. Learn more.

Left ArrowRight Arrow

41.86663, -103.66717

Hourly Observations for March 27, 2020

Temp ( °F °C ) Dew Point ( °F °C ) Humidity (%) Winds ( mph kmh ) Pressure ( in mb ) Visibility ( mi km ) Precip ( " mm )
12:53 am 00:53 Cloudy 38 3.3 35 1.7 89 89 ESE 10 17 29.75 1008 10 16 N/A
1:53 am 01:53 Cloudy 35 1.7 33 0.6 93 93 E 8 13 29.76 1008 10 16 N/A
2:34 am 02:34 Cloudy 36 2.2 34 1.1 93 93 ENE 10 17 29.83 1010 10 16 N/A
2:45 am 02:45 Cloudy 36 2.2 35 1.7 97 97 E 8 13 29.83 1010 9 14 N/A
2:53 am 02:53 Cloudy 36 2.2 35 1.7 97 97 ENE 9 15 29.74 1007 8 13 N/A
3:53 am 03:53 Cloudy with Mist and Fog 37 2.8 36 2.2 96 96 E 8 13 29.74 1007 6 10 N/A
4:53 am 04:53 Cloudy 37 2.8 36 2.2 96 96 SE 6 9 29.74 1007 8 13 N/A
5:53 am 05:53 Cloudy 37 2.8 36 2.2 96 96 N N/A 29.73 1007 7 11 N/A
6:53 am 06:53 Cloudy 37 2.8 36 2.2 96 96 S 6 9 29.75 1008 8 13 N/A
7:53 am 07:53 Cloudy with Mist and Fog 37 2.8 36 2.2 96 96 SE 5 7 29.78 1008 5 8 N/A
8:53 am 08:53 Cloudy 38 3.3 36 2.2 93 93 S 3 6 29.79 1009 8 13 N/A
9:41 am 09:41 Cloudy 42 5.6 36 2.2 79 79 N N/A 29.79 1009 10 16 N/A
9:53 am 09:53 Cloudy 42 5.6 36 2.2 79 79 N N/A 29.78 1008 10 16 N/A
10:43 am 10:43 Cloudy 46 7.8 35 1.7 66 66 VRB 3 6 29.75 1007 10 16 N/A
10:53 am 10:53 Cloudy 46 7.8 36 2.2 68 68 VRB 3 6 29.75 1008 10 16 N/A
11:25 am 11:25 Cloudy 48 9 36 2 62 62 N N/A 29.70 1006 10 16 N/A
11:53 am 11:53 Cloudy 50 10 32 undefined 50 50 NNE 9 15 29.71 1006 10 16 N/A
12:53 pm 12:53 Cloudy 50 10 33 0.6 52 52 NNE 9 15 29.69 1005 10 16 N/A
1:53 pm 13:53 Cloudy 50 10 33 0.6 52 52 NE 9 15 29.67 1005 10 16 N/A
2:53 pm 14:53 Cloudy with Light Rain 46 7.8 36 2.2 68 68 N 17 28 29.67 1005 10 16 0.00 0.00
3:53 pm 15:53 Cloudy with Light Rain 45 7.2 38 3.3 77 77 N 14 22 29.67 1005 10 16 0.00 0.00
4:53 pm 16:53 Cloudy 46 7.8 37 2.8 71 71 NNE 18 30 29.65 1004 10 16 0.00 0.00
5:53 pm 17:53 Cloudy 42 5.6 36 2.2 79 79 N 22 35 29.68 1005 10 16 N/A
6:53 pm 18:53 Cloudy with Light Rain 38 3.3 35 1.7 89 89 N 21 33 29.70 1006 10 16 0.01 0.25
7:53 pm 19:53 Cloudy with Light Snow 36 2.2 36 2.2 100 100 N 16 26 29.74 1007 7 11 0.03 0.76
8:11 pm 20:11 Cloudy with Light Rain 37 2.8 37 2.8 100 100 N 16 26 29.79 1009 10 16 0.00 0.00
8:53 pm 20:53 Cloudy with Rain 37 2.8 37 2.8 100 100 N 20 31 29.77 1008 4 6 0.04 1.02
9:53 pm 21:53 Cloudy with Rain 37 2.8 37 2.8 100 100 N 13 20 29.75 1008 6 10 0.10 2.54
10:53 pm 22:53 Cloudy with Light Rain 36 2.2 36 2.2 100 100 N 13 20 29.74 1007 10 16 0.04 1.02
11:53 pm 23:53 Cloudy with Light Snow 35 1.7 35 1.7 100 100 N 15 24 29.72 1007 8 13 0.02 0.51

Powered by AerisWeather